STARLINK-5117 (54172 NORAD) Tracking and Keplerian Element Data

This shows tracking and keplerian element data for the satellite.

Feedback or suggestion? Click here.




ElementValue
Catalog54172
NameSTARLINK-5117
Epoch Orbit384
Epoch Day325.25001157
Epoch Year2022
RAAN24.112
Inclination53.2185
Eccentricity0.0003322
Argument of Perigee4.3772
Mean Anonmoly16.4393
Mean Motion15.73245207
Decay Rate-0.00066857
L11 54172U 22141R 22325.25001157 -.00066857 00000+0 -47462-3 0 9993
L22 54172 53.2185 24.1120 0003322 4.3772 16.4393 15.73245207 3845



Live tracking and technical data element details for STARLINK-5117 (NORAD 54172). STARLINK-5117 can be tracked NOW for your location showing map with azimuth and elevation plus other details from your city location.







IsCatalogInMostPopularTable: catalog: 54172, numindb: 5
Update: records affected: 1



GetName: 54172 STARLINK-5117

Hit Count: updated at: Mon, 28 Nov 2022 21:34:36 GMT